#timestamp,LO_Frequency,Hit,StdDev 
1579374015.3,286046998.5,N
1579374035.1,286046999.4,N
1579374055.9,286046996.7,N
1579374075.7,286046997.1,N
1579374095.6,286046999.6,N
1579374115.4,286046998.6,N
1579374135.2,286047000.8,N
1579374155.1,286047001.2,N
1579374156.0,286047001.2,N
1579374175.8,286046999.0,N
1579374195.7,286046998.5,N
1579374215.5,286046998.4,N
1579374235.3,286046998.5,N
1579374255.2,286046998.7,N
1579374275.0,286047000.9,N
1579374275.9,286047000.9,N
1579374295.7,286047002.4,N
1579374315.6,286047000.5,N
1579374335.4,286047001.1,N
1579374355.3,286047000.0,N
1579374375.1,286046998.6,N
1579374376.0,286046998.6,N
1579374395.8,286046998.5,N
1579374415.7,286046999.1,N
1579374435.5,286046999.4,N
1579374455.4,286046995.4,Y
1579374475.2,286046995.9,P
1579374495.0,286046999.2,N
1579374495.9,286046999.2,N
1579374515.8,286046998.6,N
1579374535.6,286046998.4,N
1579374555.4,286046998.3,N
1579374575.3,286046998.2,N
1579374595.1,286047000.8,N
1579374615.9,286047000.3,N
1579374635.7,286047001.1,N
1579374655.6,286046998.2,N
1579374675.4,286046999.7,N
1579374695.2,286046998.5,N
1579374715.1,286046999.2,N
1579374716.0,286046999.2,N
1579374735.8,286046998.3,N
1579374755.7,286046998.1,N
1579374775.5,286046998.1,N
1579374795.3,286046998.1,N
1579374815.2,286046999.2,N
1579374835.0,286046996.5,Y
1579374835.9,286046996.5,P
1579374855.8,286047000.6,N
1579374875.6,286046997.1,N
1579374895.4,286046995.2,Y
1579374915.3,286046997.3,P
1579374935.1,286047000.9,N
1579374955.8,286046998.6,N
1579374975.7,286046997.1,N
1579374995.5,286046998.8,N
1579375015.4,286047000.9,N
1579375035.2,286047000.3,N
1579375055.0,286047001.1,N
1579375055.9,286047001.1,N
1579375075.8,286047001.0,N
1579375095.6,286047000.1,N
1579375115.4,286047002.2,N
1579375135.3,286047004.2,N
1579375155.1,286047001.8,N
1579375175.9,286046999.8,N
1579375195.7,286047000.8,N
1579375215.5,286047002.0,N
1579375235.4,286047002.8,N
1579375255.2,286046998.5,N
1579375275.0,286046999.1,N
1579375275.9,286046999.1,N
1579375295.8,286047000.1,N
1579375315.6,286047001.7,N
1579375335.5,286047000.4,N
1579375355.3,286047002.3,N
1579375375.1,286047004.2,N
1579375395.9,286047001.4,N
1579375415.7,286047004.4,N
1579375435.6,286047002.6,N
1579375455.4,286047001.1,N
1579375475.2,286047001.3,N
1579375495.1,286047000.7,N
1579375496.0,286047000.7,N
1579375515.8,286047002.3,N
1579375535.7,286047000.6,N
1579375555.5,286047002.3,N
1579375575.3,286047002.0,N
1579375595.2,286047000.0,N
1579375615.0,286046999.8,N
1579375615.9,286046999.8,N
1579375635.7,286047002.2,N
1579375655.6,286046999.7,N
1579375675.4,286046999.7,N
1579375695.3,286047001.5,N
1579375715.1,286047001.5,N
1579375716.0,286047001.5,N
1579375735.8,286047000.0,N
1579375755.7,286047000.9,N
1579375775.5,286046997.8,N
1579375795.4,286046993.5,Y
1579375815.2,286046994.0,P
1579375835.0,286046997.6,N
1579375835.9,286046997.6,N
1579375855.8,286046998.9,N
1579375875.6,286047000.9,N
1579375895.4,286046996.7,N
1579375915.3,286046998.3,N
1579375935.1,286047000.4,N
1579375955.9,286046999.8,N
1579375975.7,286047000.4,N
1579375995.5,286047000.3,N
1579376015.4,286047000.0,N
1579376035.2,286047002.6,N
1579376055.0,286047000.5,N
1579376055.9,286047000.5,N
1579376075.8,286047000.0,N
1579376095.6,286047001.5,N
1579376115.5,286047002.5,N
1579376135.3,286046999.9,N
1579376155.1,286047001.8,N
1579376175.9,286047002.0,N
1579376195.7,286047002.8,N
1579376215.5,286047002.1,N
1579376235.4,286046998.3,N
1579376255.2,286046998.4,N
1579376275.1,286046998.1,N
1579376276.0,286046998.1,N
1579376295.8,286047002.3,N
1579376315.6,286047004.0,N
1579376335.5,286046999.7,N
1579376355.3,286047000.0,N
1579376375.2,286047001.8,N
1579376395.9,286047001.3,N
1579376415.7,286047005.5,Y
1579376435.6,286047005.9,P
1579376455.4,286047003.2,N
1579376475.2,286047002.2,N
1579376495.1,286047000.2,N
1579376496.0,286047000.2,N
1579376515.8,286047000.8,N
1579376535.7,286047001.0,N
1579376555.5,286047000.8,N
1579376575.3,286046999.5,N
1579376595.2,286046999.6,N
1579376615.0,286047000.7,N
1579376615.9,286047000.7,N
1579376635.7,286047001.2,N
1579376655.6,286046999.4,N
1579376675.4,286047000.8,N
1579376695.3,286047000.8,N
1579376715.1,286046999.8,N
1579376716.0,286046999.8,N
1579376735.8,286047000.5,N
1579376755.7,286047000.4,N
1579376775.5,286047002.5,N
1579376795.3,286047000.5,N
1579376815.2,286047002.7,N
1579376835.0,286047000.0,N
1579376835.9,286047000.0,N
1579376855.8,286046999.9,N
1579376875.6,286047002.7,N
1579376895.4,286047000.5,N
1579376915.3,286047000.3,N
1579376935.1,286047000.6,N
1579376955.9,286046996.8,N
1579376975.7,286046995.1,Y
1579376995.5,286046994.9,P
1579377015.4,286046995.8,N
1579377035.2,286046991.7,P
1579377055.0,286046996.4,N
1579377055.9,286046996.4,N
1579377075.8,286046996.7,N
1579377095.6,286046996.9,N
1579377115.5,286046997.8,N
1579377135.3,286046997.1,N
1579377155.1,286046995.5,N
1579377175.9,286046995.4,N
1579377195.7,286046995.3,N
1579377215.5,286046996.0,N
1579377235.4,286046995.1,N
1579377255.2,286046994.9,N
1579377275.1,286046995.3,N
1579377276.0,286046995.3,N
1579377295.8,286046994.9,Y
1579377315.6,286047000.2,P
1579377335.5,286047004.2,N
1579377355.3,286047002.0,N
1579377375.2,286047002.7,N
1579377395.9,286047002.4,N
1579377415.7,286046998.8,N
1579377435.6,286046997.1,N
1579377455.4,286046996.9,N
1579377475.2,286046999.2,N
1579377495.1,286046997.0,N
1579377496.0,286046997.0,N
1579377515.8,286046997.1,N
1579377535.7,286046998.4,N
1579377555.5,286046999.7,N
1579377575.3,286047002.6,N
1579377595.2,286047000.9,N
